Location: Lane
(33.5226°N, 79.8788°W)
Time: 08:50:43
(UTC+00:00)

Vanguard 2 - Pass Details

Date: 12 October 2022
Orbit: 553 x 2932 km, 32.9° (Epoch: 08 December)

Event Time Altitude Azimuth Distance (km) Brightness Sun altitude
Rises 13:01:47 0° 197° (SSW) 2,887 10.6 19.1°
Reaches altitude 10° 13:04:48 10° 172° (S) 2,187 10.4 19.7°
Maximum altitude 13:07:37 15° 137° (SE) 2,103 11.3 20.2°
Drops below altitude 10° 13:11:00 10° 104° (ESE) 2,756 12.4 20.9°
Sets 13:15:39 0° 84° (E) 4,211 12.3 21.8°
